CZ-3C DEB, 40867

Orbit data source: Space-Track

CZ-3C DEB, 40867 is space debris in HEO originally from a launch on Fri, 24 Feb 2012 UTC launched from the Xichang Space Center, China (XSC). Debris objects in space refer to the collection of defunct objects orbiting the Earth. Examples of debris include non-operational satellites, rocket bodies, and fragments generated from explosions, collisions, or faulty payload assembly.

Loading next visibility...
CZ-3C DEB details
Identifier
40867, 2012-008AH
Orbit
HEO
Last TLE update2 months ago
Origin
Flag of CNCASC (CN / PRC)
ManufacturerCALT
MissionSpacecraft
Bus & MotorUnknown
MassUnknown
Launch date (UTC)
2012-02-24 (13 years ago)
Launch vehicleUnknown
Launch site
Xichang Space Center, China (XSC)
Object type
Payload
Rocket body
Debris
Shape & HBRUnknown
Radar Cross SectionMedium (>0.1 m² and <1 m²)

Expand to show TLE details & history

TLE from 2 months ago
0 CZ-3C DEB
1 40867U 12008AH  24298.01940812  .00000293  00000-0  37047-2 0  9993
2 40867  21.4063 188.7513 7183143 222.3329  51.5447  2.25785042 94415
Epoch: 2024-10-24T00:27Z
Definitive object data (Epoch: 2024-10-24T00:27:56.861Z)
Latitude0.0002°
Longitude148.95742°
Altitude19,000.136 km
Speed3.895 km/s
True Right ascension12h 35m 24s
True Declination0° 00' 01"
Sunlit
Object was in daylight at TLE epoch
Visualization TLE readout
Latitude20.93705°
Longitude-153.79896°
Altitude35,760.571 km
Speed1.636 km/s
Apparent Right ascension16h 52m 53s
Apparent Declination15° 50' 57"
Sunlit
Object is in daylight
Visualization observer readout
Local Sidereal Time11:11:50
Azimuth80.614° E
Elevation13.663°
Doppler factor1
Orbital elements
Apogee altitude35,802.848 km
Perigee altitude536.652 km
Semi-major axis24,547.887 km
Eccentricity0.7183143
Inclination21.4063°
RAAN188.7513°
Arg. of periapsis222.3329°
True anomaly137.73378°
Mean anomaly51.5447°
Eccentric anomaly92.65684°
Mean motion0.56432 °/min
BSTAR0.0037047
Orbital period637.94 mins
Loading maneuver chart data...
Loading historical data...
Loading historical data...
Loading historical data...
Loading historical data...
Loading historical data...
Loading historical data...
Loading historical data...

CZ-3C DEB Visibility forecast

Observer location: undefined°, undefined

Span
Click to sort rows by Start time (UTC) header in descending order
Start Az.
Max El. time (UTC)
Max El. Az.
Max El.
End time (UTC)
End Az.
263 mins2024-12-26 11:50:25.877Z80.629° E2024-12-26 14:38:25.877Z90.737° ESE22.268°2024-12-26 16:13:25.877Z92.534° ESE
219 mins2024-12-26 18:59:25.877Z268.157° W2024-12-26 20:19:25.877Z272.172° WNW16.737°2024-12-26 22:38:25.877Z282.127° WNW
|